QPF
0.01 0.02 0.03 0.05 0.04 0.05 0.04 0.02 0.02 0.02 0.02 0.02 0.01 0.01 0.01 0.01 0.02 0.03 0.04 0.05 0.04 0.04 0.07 0.10 0.12 0.11 0.08 0.06 0.05 0.06 0.07 0.07 0.07 0.08 0.08 0.05 0.06 0.06 0.06 0.08 0.12 0.18 0.23 0.26 0.24 0.20 0.16 0.16 0.17
0.01 0.02 0.04 0.04 0.02 0.03 0.03 0.01 0.02 0.01 0.01 0.00 0.00 0.00 0.00 0.01 0.03 0.06 0.07 0.05 0.04 0.03 0.05 0.08 0.13 0.13 0.11 0.09 0.06 0.07 0.08 0.06 0.06 0.06 0.06 0.05 0.07 0.08 0.08 0.13 0.19 0.22 0.20 0.15 0.19 0.25 0.21 0.18 0.18
0.05 0.04 0.04 0.02 0.01 0.02 0.02 0.01 0.01 0.00 0.00 0.00 0.01 0.01 0.00 0.02 0.05 0.07 0.11 0.08 0.06 0.05 0.07 0.13 0.12 0.11 0.11 0.10 0.09 0.08 0.07 0.07 0.08 0.07 0.06 0.07 0.09 0.13 0.17 0.24 0.23 0.20 0.16 0.11 0.13 0.22 0.20 0.16 0.14
0.05 0.04 0.04 0.02 0.01 0.01 0.02 0.01 0.01 0.01 0.01 0.01 0.01 0.00 0.01 0.04 0.05 0.06 0.09 0.09 0.07 0.09 0.11 0.13 0.12 0.13 0.11 0.11 0.12 0.11 0.10 0.09 0.09 0.09 0.09 0.10 0.08 0.09 0.13 0.16 0.15 0.18 0.17 0.14 0.16 0.16 0.15 0.12 0.09
0.03 0.02 0.03 0.02 0.01 0.01 0.01 0.01 0.02 0.01 0.01 0.01 0.01 0.01 0.02 0.04 0.03 0.04 0.04 0.05 0.09 0.11 0.10 0.11 0.19 0.23 0.22 0.14 0.10 0.09 0.09 0.09 0.09 0.10 0.09 0.10 0.08 0.08 0.10 0.13 0.12 0.16 0.23 0.22 0.16 0.11 0.08 0.09 0.09
0.03 0.02 0.02 0.02 0.01 0.01 0.01 0.01 0.01 0.01 0.00 0.01 0.00 0.01 0.03 0.05 0.03 0.02 0.02 0.04 0.07 0.08 0.06 0.11 0.18 0.24 0.35 0.22 0.11 0.07 0.08 0.09 0.08 0.10 0.11 0.08 0.07 0.07 0.09 0.11 0.11 0.15 0.28 0.22 0.11 0.08 0.07 0.07 0.08
0.05 0.03 0.01 0.00 0.00 0.01 0.01 0.01 0.01 0.00 0.00 0.00 0.00 0.00 0.02 0.04 0.03 0.02 0.01 0.02 0.03 0.04 0.05 0.09 0.16 0.20 0.31 0.19 0.12 0.08 0.08 0.08 0.08 0.13 0.11 0.08 0.07 0.07 0.08 0.08 0.11 0.18 0.25 0.10 0.09 0.08 0.07 0.07 0.09
0.02 0.03 0.01 0.01 0.00 0.01 0.01 0.00 0.01 0.00 0.00 0.00 0.00 0.00 0.01 0.02 0.02 0.01 0.01 0.02 0.03 0.04 0.05 0.08 0.12 0.17 0.18 0.11 0.12 0.08 0.09 0.11 0.11 0.13 0.09 0.08 0.07 0.06 0.07 0.08 0.12 0.21 0.14 0.08 0.09 0.10 0.11 0.10 0.12
0.02 0.03 0.01 0.00 0.00 0.00 0.00 0.00 0.00 0.00 0.00 0.00 0.00 0.00 0.00 0.01 0.02 0.01 0.01 0.02 0.03 0.04 0.04 0.05 0.05 0.07 0.07 0.07 0.10 0.09 0.11 0.10 0.09 0.08 0.06 0.06 0.03 0.03 0.04 0.07 0.12 0.17 0.11 0.07 0.08 0.11 0.12 0.10 0.10
0.01 0.01 0.00 0.00 0.00 0.00 0.00 0.00 0.00 0.00 0.00 0.00 0.00 0.01 0.01 0.02 0.02 0.01 0.01 0.04 0.05 0.05 0.04 0.04 0.03 0.04 0.04 0.05 0.06 0.07 0.07 0.07 0.05 0.04 0.03 0.02 0.01 0.01 0.03 0.08 0.12 0.12 0.11 0.10 0.09 0.10 0.11 0.09 0.09
0.01 0.00 0.00 0.00 0.00 0.00 0.00 0.01 0.01 0.00 0.00 0.00 0.00 0.00 0.01 0.01 0.01 0.01 0.02 0.05 0.08 0.07 0.04 0.04 0.03 0.03 0.03 0.04 0.06 0.05 0.04 0.04 0.03 0.02 0.01 0.02 0.01 0.02 0.03 0.06 0.07 0.06 0.06 0.06 0.09 0.10 0.09 0.09 0.09
0.00 0.00 0.00 0.00 0.00 0.00 0.01 0.01 0.01 0.01 0.01 0.00 0.00 0.00 0.00 0.00 0.01 0.01 0.01 0.04 0.07 0.07 0.05 0.03 0.03 0.03 0.03 0.04 0.04 0.03 0.03 0.02 0.02 0.02 0.01 0.02 0.02 0.02 0.03 0.03 0.03 0.03 0.03 0.05 0.07 0.10 0.12 0.10 0.09
0.00 0.01 0.01 0.01 0.01 0.01 0.01 0.01 0.01 0.01 0.01 0.00 0.00 0.00 0.00 0.00 0.01 0.01 0.01 0.02 0.04 0.05 0.05 0.03 0.02 0.02 0.03 0.03 0.03 0.02 0.02 0.02 0.02 0.02 0.02 0.03 0.03 0.02 0.02 0.03 0.02 0.03 0.02 0.04 0.06 0.06 0.09 0.06 0.06
0.00 0.00 0.01 0.01 0.01 0.01 0.01 0.01 0.00 0.01 0.01 0.00 0.00 0.00 0.00 0.01 0.01 0.01 0.01 0.01 0.01 0.03 0.03 0.03 0.03 0.02 0.02 0.03 0.03 0.03 0.04 0.02 0.01 0.00 0.01 0.03 0.03 0.03 0.02 0.04 0.04 0.03 0.02 0.03 0.04 0.04 0.03 0.03 0.04
0.00 0.01 0.01 0.02 0.03 0.03 0.01 0.01 0.02 0.01 0.01 0.00 0.00 0.00 0.00 0.00 0.00 0.00 0.00 0.00 0.01 0.01 0.02 0.02 0.03 0.03 0.03 0.02 0.02 0.02 0.03 0.01 0.00 0.00 0.01 0.03 0.03 0.03 0.03 0.03 0.04 0.02 0.03 0.03 0.03 0.03 0.05 0.07 0.05
0.01 0.01 0.01 0.02 0.04 0.03 0.01 0.01 0.02 0.01 0.01 0.00 0.00 0.00 0.00 0.00 0.00 0.00 0.00 0.00 0.01 0.01 0.01 0.01 0.02 0.03 0.03 0.02 0.02 0.02 0.02 0.01 0.01 0.01 0.02 0.03 0.04 0.05 0.06 0.06 0.05 0.04 0.04 0.04 0.04 0.03 0.06 0.06 0.05
0.01 0.01 0.01 0.01 0.02 0.02 0.01 0.01 0.01 0.01 0.01 0.01 0.00 0.00 0.00 0.00 0.00 0.00 0.00 0.00 0.01 0.01 0.01 0.01 0.02 0.03 0.03 0.02 0.03 0.02 0.02 0.01 0.01 0.01 0.02 0.03 0.05 0.05 0.08 0.08 0.06 0.05 0.05 0.06 0.06 0.04 0.05 0.05 0.04
0.00 0.01 0.01 0.01 0.02 0.01 0.01 0.00 0.00 0.01 0.01 0.01 0.00 0.00 0.00 0.00 0.00 0.00 0.00 0.00 0.01 0.02 0.02 0.01 0.02 0.02 0.03 0.03 0.02 0.02 0.02 0.01 0.01 0.01 0.01 0.02 0.06 0.08 0.09 0.07 0.05 0.05 0.05 0.05 0.06 0.07 0.06 0.05 0.05
0.00 0.00 0.01 0.01 0.01 0.01 0.01 0.01 0.01 0.01 0.01 0.01 0.01 0.01 0.00 0.00 0.00 0.01 0.00 0.00 0.01 0.02 0.03 0.02 0.01 0.01 0.01 0.02 0.02 0.02 0.02 0.02 0.01 0.01 0.02 0.02 0.06 0.10 0.11 0.08 0.05 0.06 0.06 0.06 0.06 0.06 0.06 0.05 0.05
0.00 0.00 0.01 0.01 0.00 0.00 0.01 0.01 0.00 0.00 0.00 0.00 0.01 0.01 0.01 0.00 0.00 0.01 0.01 0.00 0.01 0.01 0.01 0.01 0.01 0.00 0.01 0.02 0.03 0.04 0.03 0.03 0.01 0.02 0.02 0.02 0.03 0.05 0.07 0.07 0.06 0.06 0.06 0.06 0.07 0.07 0.06 0.04 0.04
0.00 0.00 0.01 0.01 0.00 0.00 0.01 0.01 0.00 0.00 0.00 0.00 0.00 0.01 0.01 0.01 0.01 0.01 0.01 0.01 0.01 0.01 0.01 0.00 0.00 0.00 0.02 0.04 0.06 0.06 0.04 0.02 0.01 0.01 0.02 0.03 0.04 0.04 0.03 0.05 0.06 0.07 0.09 0.08 0.08 0.09 0.07 0.04 0.03
0.00 0.00 0.01 0.01 0.00 0.00 0.00 0.00 0.01 0.00 0.00 0.01 0.01 0.01 0.02 0.03 0.02 0.02 0.02 0.01 0.01 0.01 0.01 0.01 0.01 0.00 0.01 0.01 0.01 0.01 0.01 0.01 0.01 0.02 0.04 0.04 0.04 0.05 0.05 0.04 0.04 0.05 0.05 0.05 0.06 0.07 0.07 0.04 0.03
0.00 0.00 0.01 0.02 0.01 0.00 0.00 0.00 0.00 0.00 0.00 0.01 0.01 0.02 0.03 0.04 0.05 0.07 0.07 0.04 0.02 0.02 0.02 0.01 0.01 0.01 0.01 0.01 0.01 0.01 0.00 0.00 0.01 0.02 0.03 0.05 0.06 0.08 0.09 0.09 0.09 0.07 0.05 0.04 0.06 0.07 0.06 0.05 0.03
0.00 0.00 0.00 0.01 0.01 0.00 0.00 0.00 0.00 0.00 0.01 0.01 0.01 0.02 0.03 0.03 0.05 0.07 0.07 0.06 0.04 0.03 0.03 0.01 0.00 0.01 0.01 0.01 0.01 0.01 0.00 0.00 0.01 0.01 0.03 0.05 0.07 0.10 0.13 0.13 0.10 0.10 0.09 0.06 0.05 0.05 0.04 0.03 0.03
0.00 0.00 0.00 0.00 0.00 0.00 0.00 0.00 0.00 0.00 0.00 0.00 0.00 0.01 0.02 0.02 0.02 0.04 0.04 0.04 0.03 0.03 0.03 0.02 0.02 0.02 0.01 0.01 0.01 0.00 0.00 0.01 0.01 0.01 0.02 0.03 0.05 0.06 0.09 0.11 0.14 0.14 0.12 0.08 0.06 0.04 0.04 0.04 0.04
0.00 0.00 0.00 0.00 0.00 0.00 0.00 0.00 0.00 0.01 0.01 0.00 0.00 0.00 0.01 0.01 0.01 0.01 0.02 0.02 0.02 0.02 0.02 0.04 0.03 0.03 0.02 0.01 0.01 0.01 0.01 0.01 0.01 0.01 0.02 0.04 0.04 0.04 0.06 0.09 0.10 0.13 0.13 0.10 0.08 0.06 0.06 0.06 0.05
0.00 0.00 0.00 0.00 0.00 0.00 0.00 0.00 0.00 0.00 0.01 0.01 0.01 0.01 0.01 0.01 0.01 0.01 0.01 0.01 0.02 0.02 0.03 0.03 0.03 0.02 0.02 0.01 0.01 0.01 0.01 0.01 0.01 0.01 0.02 0.03 0.03 0.04 0.04 0.05 0.06 0.06 0.06 0.06 0.07 0.08 0.07 0.08 0.07
0.00 0.00 0.00 0.01 0.01 0.00 0.00 0.00 0.00 0.00 0.01 0.02 0.01 0.01 0.00 0.00 0.01 0.01 0.01 0.01 0.01 0.01 0.02 0.03 0.02 0.02 0.02 0.02 0.03 0.03 0.02 0.02 0.02 0.02 0.02 0.02 0.02 0.02 0.02 0.03 0.03 0.03 0.03 0.04 0.07 0.08 0.09 0.09 0.08
0.00 0.00 0.00 0.00 0.01 0.01 0.00 0.00 0.00 0.00 0.00 0.01 0.02 0.01 0.01 0.00 0.00 0.01 0.01 0.01 0.01 0.01 0.01 0.02 0.03 0.02 0.02 0.03 0.03 0.03 0.03 0.03 0.03 0.02 0.02 0.01 0.01 0.01 0.01 0.01 0.02 0.02 0.02 0.03 0.05 0.07 0.09 0.08 0.07
0.00 0.00 0.00 0.00 0.00 0.01 0.01 0.00 0.00 0.00 0.00 0.00 0.01 0.01 0.00 0.00 0.01 0.00 0.01 0.01 0.01 0.01 0.01 0.02 0.03 0.02 0.02 0.02 0.03 0.05 0.05 0.05 0.04 0.04 0.04 0.02 0.01 0.01 0.02 0.01 0.01 0.02 0.02 0.02 0.03 0.05 0.06 0.05 0.05
MSLP
1007.80 1008.61 1009.54 1010.46 1011.24 1011.75 1011.95 1011.84 1011.51 1011.06 1010.63 1010.34 1010.24 1010.33 1010.55 1010.81 1010.98 1010.97 1010.74 1010.30 1009.73 1009.11 1008.57 1008.18 1008.00 1008.03 1008.23 1008.52 1008.85 1009.16 1009.44 1009.69 1009.95 1010.25 1010.64 1011.10 1011.64 1012.19 1012.72 1013.18 1013.56 1013.84 1014.06 1014.24 1014.43 1014.63 1014.87 1015.13 1015.40
1008.12 1009.05 1010.05 1010.98 1011.69 1012.10 1012.16 1011.91 1011.44 1010.88 1010.38 1010.05 1009.94 1010.04 1010.28 1010.56 1010.76 1010.79 1010.61 1010.23 1009.73 1009.20 1008.74 1008.42 1008.30 1008.38 1008.59 1008.90 1009.23 1009.54 1009.82 1010.07 1010.34 1010.65 1011.02 1011.47 1011.97 1012.48 1012.96 1013.38 1013.73 1014.00 1014.22 1014.41 1014.61 1014.83 1015.08 1015.34 1015.60
1008.61 1009.61 1010.63 1011.50 1012.10 1012.37 1012.28 1011.88 1011.30 1010.67 1010.13 1009.78 1009.68 1009.79 1010.05 1010.34 1010.55 1010.61 1010.46 1010.15 1009.72 1009.27 1008.89 1008.65 1008.60 1008.71 1008.96 1009.27 1009.60 1009.92 1010.20 1010.46 1010.74 1011.05 1011.41 1011.83 1012.29 1012.76 1013.19 1013.57 1013.89 1014.15 1014.38 1014.59 1014.81 1015.05 1015.31 1015.58 1015.84
1009.20 1010.22 1011.18 1011.94 1012.40 1012.51 1012.28 1011.77 1011.12 1010.45 1009.92 1009.59 1009.51 1009.64 1009.91 1010.20 1010.42 1010.48 1010.37 1010.10 1009.74 1009.37 1009.07 1008.92 1008.92 1009.07 1009.33 1009.65 1009.98 1010.29 1010.58 1010.85 1011.13 1011.44 1011.80 1012.20 1012.62 1013.04 1013.43 1013.78 1014.08 1014.33 1014.57 1014.80 1015.05 1015.31 1015.58 1015.84 1016.09
1009.77 1010.75 1011.60 1012.22 1012.52 1012.49 1012.14 1011.57 1010.90 1010.27 1009.78 1009.52 1009.49 1009.65 1009.93 1010.21 1010.41 1010.47 1010.38 1010.15 1009.85 1009.56 1009.34 1009.25 1009.30 1009.48 1009.74 1010.05 1010.37 1010.67 1010.95 1011.23 1011.52 1011.84 1012.19 1012.57 1012.97 1013.35 1013.71 1014.02 1014.30 1014.56 1014.81 1015.06 1015.33 1015.61 1015.88 1016.13 1016.36
1010.22 1011.10 1011.81 1012.26 1012.41 1012.25 1011.84 1011.27 1010.65 1010.12 1009.74 1009.58 1009.63 1009.84 1010.12 1010.39 1010.57 1010.62 1010.53 1010.33 1010.08 1009.86 1009.71 1009.67 1009.76 1009.94 1010.19 1010.48 1010.76 1011.04 1011.32 1011.60 1011.89 1012.22 1012.58 1012.96 1013.33 1013.69 1014.02 1014.32 1014.58 1014.84 1015.10 1015.37 1015.65 1015.93 1016.20 1016.43 1016.63
1010.47 1011.20 1011.74 1012.02 1012.04 1011.80 1011.39 1010.88 1010.39 1010.00 1009.78 1009.76 1009.90 1010.16 1010.46 1010.71 1010.87 1010.90 1010.81 1010.64 1010.45 1010.29 1010.19 1010.20 1010.29 1010.47 1010.69 1010.93 1011.18 1011.43 1011.68 1011.96 1012.27 1012.61 1012.98 1013.36 1013.73 1014.07 1014.38 1014.65 1014.90 1015.15 1015.41 1015.69 1015.98 1016.26 1016.51 1016.73 1016.89
1010.50 1011.06 1011.42 1011.55 1011.46 1011.20 1010.83 1010.43 1010.10 1009.91 1009.87 1010.00 1010.25 1010.56 1010.87 1011.11 1011.25 1011.26 1011.18 1011.05 1010.90 1010.79 1010.75 1010.79 1010.89 1011.05 1011.23 1011.42 1011.61 1011.82 1012.05 1012.32 1012.64 1013.00 1013.39 1013.77 1014.14 1014.47 1014.76 1015.01 1015.24 1015.48 1015.74 1016.01 1016.30 1016.57 1016.81 1017.00 1017.13
1010.37 1010.76 1010.95 1010.94 1010.78 1010.52 1010.22 1009.97 1009.83 1009.82 1009.97 1010.24 1010.58 1010.94 1011.26 1011.49 1011.61 1011.62 1011.56 1011.46 1011.37 1011.32 1011.33 1011.39 1011.50 1011.64 1011.77 1011.91 1012.06 1012.23 1012.43 1012.70 1013.02 1013.40 1013.80 1014.20 1014.57 1014.89 1015.15 1015.38 1015.59 1015.80 1016.04 1016.31 1016.58 1016.85 1017.08 1017.25 1017.35
1010.17 1010.39 1010.43 1010.32 1010.12 1009.88 1009.68 1009.57 1009.59 1009.76 1010.06 1010.44 1010.85 1011.24 1011.55 1011.76 1011.87 1011.88 1011.85 1011.80 1011.77 1011.79 1011.85 1011.96 1012.07 1012.19 1012.30 1012.39 1012.50 1012.63 1012.82 1013.08 1013.42 1013.80 1014.22 1014.63 1014.99 1015.30 1015.54 1015.74 1015.92 1016.10 1016.32 1016.56 1016.82 1017.08 1017.30 1017.46 1017.54
1010.00 1010.08 1010.01 1009.82 1009.59 1009.39 1009.28 1009.28 1009.44 1009.73 1010.12 1010.56 1011.00 1011.38 1011.67 1011.86 1011.96 1011.99 1011.99 1012.00 1012.04 1012.13 1012.26 1012.41 1012.55 1012.67 1012.76 1012.84 1012.92 1013.03 1013.21 1013.47 1013.81 1014.20 1014.63 1015.03 1015.39 1015.68 1015.91 1016.07 1016.22 1016.37 1016.55 1016.77 1017.02 1017.26 1017.48 1017.63 1017.71
1009.94 1009.92 1009.77 1009.54 1009.31 1009.15 1009.09 1009.18 1009.41 1009.75 1010.18 1010.62 1011.03 1011.37 1011.62 1011.78 1011.87 1011.91 1011.96 1012.03 1012.15 1012.31 1012.51 1012.71 1012.89 1013.03 1013.13 1013.21 1013.29 1013.40 1013.57 1013.83 1014.18 1014.58 1015.00 1015.40 1015.75 1016.03 1016.23 1016.37 1016.48 1016.59 1016.74 1016.93 1017.16 1017.40 1017.60 1017.76 1017.83
1010.02 1009.95 1009.76 1009.52 1009.31 1009.18 1009.17 1009.29 1009.53 1009.87 1010.25 1010.64 1010.97 1011.24 1011.43 1011.55 1011.62 1011.68 1011.77 1011.89 1012.08 1012.32 1012.58 1012.84 1013.07 1013.26 1013.39 1013.50 1013.59 1013.72 1013.90 1014.17 1014.51 1014.90 1015.32 1015.71 1016.05 1016.31 1016.49 1016.61 1016.69 1016.78 1016.90 1017.06 1017.26 1017.48 1017.69 1017.84 1017.92
1010.24 1010.14 1009.96 1009.74 1009.57 1009.47 1009.49 1009.61 1009.82 1010.09 1010.38 1010.66 1010.89 1011.07 1011.18 1011.25 1011.30 1011.37 1011.48 1011.65 1011.89 1012.18 1012.50 1012.81 1013.10 1013.34 1013.53 1013.68 1013.82 1013.97 1014.17 1014.44 1014.77 1015.15 1015.55 1015.92 1016.24 1016.49 1016.66 1016.77 1016.84 1016.92 1017.01 1017.16 1017.34 1017.54 1017.73 1017.88 1017.96
1010.51 1010.43 1010.28 1010.13 1010.01 1009.96 1009.98 1010.08 1010.23 1010.41 1010.58 1010.73 1010.84 1010.91 1010.94 1010.97 1011.00 1011.07 1011.19 1011.39 1011.65 1011.97 1012.32 1012.68 1013.01 1013.31 1013.56 1013.77 1013.96 1014.15 1014.37 1014.64 1014.95 1015.30 1015.67 1016.01 1016.32 1016.56 1016.73 1016.84 1016.92 1016.99 1017.09 1017.21 1017.37 1017.55 1017.73 1017.87 1017.95
1010.77 1010.73 1010.65 1010.57 1010.53 1010.54 1010.58 1010.65 1010.73 1010.79 1010.83 1010.85 1010.84 1010.81 1010.78 1010.76 1010.77 1010.84 1010.96 1011.16 1011.42 1011.74 1012.09 1012.47 1012.84 1013.19 1013.50 1013.77 1014.02 1014.25 1014.49 1014.75 1015.04 1015.35 1015.67 1015.97 1016.25 1016.49 1016.67 1016.80 1016.91 1017.00 1017.10 1017.22 1017.37 1017.54 1017.70 1017.83 1017.90
1010.95 1010.96 1010.97 1011.00 1011.05 1011.12 1011.19 1011.23 1011.23 1011.19 1011.11 1010.99 1010.88 1010.77 1010.69 1010.65 1010.65 1010.71 1010.83 1011.00 1011.24 1011.53 1011.87 1012.23 1012.62 1013.00 1013.37 1013.71 1014.01 1014.28 1014.54 1014.78 1015.03 1015.28 1015.54 1015.80 1016.05 1016.28 1016.47 1016.64 1016.78 1016.90 1017.03 1017.16 1017.31 1017.46 1017.61 1017.73 1017.79
1011.03 1011.10 1011.21 1011.36 1011.52 1011.66 1011.76 1011.77 1011.70 1011.54 1011.34 1011.12 1010.91 1010.75 1010.64 1010.59 1010.60 1010.67 1010.77 1010.92 1011.11 1011.36 1011.65 1011.99 1012.37 1012.78 1013.19 1013.58 1013.93 1014.24 1014.50 1014.73 1014.93 1015.11 1015.31 1015.51 1015.72 1015.93 1016.14 1016.34 1016.52 1016.69 1016.84 1017.00 1017.15 1017.30 1017.43 1017.55 1017.61
1011.02 1011.16 1011.38 1011.66 1011.93 1012.15 1012.26 1012.23 1012.08 1011.81 1011.49 1011.16 1010.87 1010.67 1010.55 1010.52 1010.55 1010.63 1010.74 1010.86 1011.01 1011.19 1011.43 1011.72 1012.09 1012.50 1012.95 1013.39 1013.79 1014.13 1014.40 1014.60 1014.75 1014.87 1014.98 1015.11 1015.27 1015.46 1015.67 1015.90 1016.12 1016.32 1016.52 1016.69 1016.85 1016.99 1017.13 1017.24 1017.31
1010.98 1011.21 1011.55 1011.95 1012.32 1012.60 1012.71 1012.63 1012.37 1011.97 1011.51 1011.07 1010.71 1010.46 1010.35 1010.35 1010.42 1010.53 1010.65 1010.76 1010.86 1010.99 1011.16 1011.41 1011.75 1012.17 1012.64 1013.12 1013.56 1013.94 1014.22 1014.41 1014.51 1014.56 1014.59 1014.65 1014.74 1014.89 1015.09 1015.33 1015.57 1015.80 1016.02 1016.21 1016.37 1016.51 1016.64 1016.75 1016.84
1010.97 1011.31 1011.79 1012.31 1012.78 1013.08 1013.16 1012.99 1012.59 1012.03 1011.41 1010.83 1010.38 1010.09 1009.98 1010.01 1010.13 1010.29 1010.43 1010.54 1010.62 1010.70 1010.82 1011.03 1011.33 1011.75 1012.24 1012.75 1013.25 1013.66 1013.97 1014.15 1014.21 1014.20 1014.17 1014.14 1014.17 1014.27 1014.43 1014.65 1014.89 1015.13 1015.35 1015.53 1015.69 1015.82 1015.93 1016.04 1016.14
1011.05 1011.53 1012.16 1012.80 1013.34 1013.65 1013.66 1013.36 1012.78 1012.02 1011.21 1010.47 1009.90 1009.56 1009.43 1009.49 1009.67 1009.88 1010.06 1010.18 1010.25 1010.30 1010.37 1010.53 1010.82 1011.22 1011.73 1012.28 1012.82 1013.29 1013.63 1013.82 1013.87 1013.83 1013.73 1013.64 1013.60 1013.63 1013.74 1013.91 1014.12 1014.33 1014.52 1014.68 1014.80 1014.91 1015.00 1015.10 1015.21
1011.23 1011.89 1012.67 1013.43 1014.02 1014.31 1014.23 1013.77 1012.98 1012.00 1010.97 1010.05 1009.35 1008.92 1008.78 1008.85 1009.07 1009.33 1009.56 1009.70 1009.77 1009.79 1009.83 1009.95 1010.20 1010.60 1011.12 1011.70 1012.30 1012.81 1013.20 1013.43 1013.49 1013.43 1013.30 1013.16 1013.05 1013.01 1013.05 1013.16 1013.31 1013.47 1013.61 1013.72 1013.79 1013.85 1013.91 1013.98 1014.09
1011.49 1012.34 1013.28 1014.15 1014.79 1015.04 1014.85 1014.21 1013.21 1011.99 1010.74 1009.63 1008.79 1008.28 1008.10 1008.18 1008.43 1008.74 1009.00 1009.16 1009.23 1009.23 1009.24 1009.31 1009.53 1009.91 1010.43 1011.04 1011.68 1012.25 1012.70 1012.98 1013.08 1013.04 1012.90 1012.72 1012.57 1012.47 1012.44 1012.47 1012.55 1012.64 1012.70 1012.75 1012.76 1012.75 1012.76 1012.80 1012.89
1011.77 1012.80 1013.90 1014.87 1015.53 1015.74 1015.43 1014.63 1013.43 1012.00 1010.56 1009.29 1008.32 1007.72 1007.51 1007.59 1007.86 1008.20 1008.48 1008.66 1008.72 1008.70 1008.66 1008.69 1008.87 1009.21 1009.72 1010.35 1011.02 1011.65 1012.16 1012.50 1012.66 1012.66 1012.54 1012.36 1012.18 1012.04 1011.95 1011.92 1011.92 1011.93 1011.93 1011.90 1011.84 1011.77 1011.72 1011.71 1011.77
1011.98 1013.19 1014.41 1015.45 1016.12 1016.28 1015.87 1014.93 1013.58 1012.00 1010.41 1009.02 1007.97 1007.33 1007.09 1007.17 1007.46 1007.81 1008.11 1008.29 1008.33 1008.27 1008.19 1008.17 1008.29 1008.59 1009.07 1009.69 1010.38 1011.05 1011.62 1012.03 1012.26 1012.32 1012.25 1012.09 1011.91 1011.75 1011.63 1011.56 1011.51 1011.46 1011.39 1011.30 1011.18 1011.06 1010.95 1010.89 1010.91
1012.07 1013.39 1014.69 1015.76 1016.41 1016.51 1016.02 1014.99 1013.56 1011.90 1010.26 1008.83 1007.76 1007.11 1006.88 1006.98 1007.28 1007.64 1007.95 1008.11 1008.13 1008.03 1007.90 1007.82 1007.87 1008.12 1008.56 1009.16 1009.85 1010.54 1011.15 1011.62 1011.92 1012.05 1012.04 1011.94 1011.79 1011.65 1011.53 1011.44 1011.37 1011.29 1011.19 1011.07 1010.91 1010.74 1010.60 1010.50 1010.47
1012.00 1013.35 1014.64 1015.68 1016.27 1016.32 1015.78 1014.72 1013.27 1011.63 1010.03 1008.65 1007.64 1007.05 1006.87 1007.01 1007.34 1007.71 1008.01 1008.16 1008.15 1008.02 1007.83 1007.69 1007.69 1007.88 1008.26 1008.82 1009.49 1010.18 1010.82 1011.34 1011.69 1011.89 1011.95 1011.92 1011.83 1011.74 1011.65 1011.59 1011.53 1011.46 1011.37 1011.24 1011.08 1010.90 1010.73 1010.60 1010.54
1011.73 1013.02 1014.22 1015.14 1015.64 1015.62 1015.05 1014.01 1012.63 1011.10 1009.63 1008.40 1007.53 1007.07 1006.99 1007.20 1007.57 1007.97 1008.27 1008.41 1008.38 1008.22 1008.01 1007.83 1007.77 1007.91 1008.24 1008.75 1009.38 1010.05 1010.69 1011.23 1011.63 1011.88 1012.02 1012.06 1012.04 1012.02 1011.99 1011.98 1011.98 1011.95 1011.90 1011.81 1011.68 1011.52 1011.36 1011.22 1011.12
1011.30 1012.42 1013.44 1014.19 1014.55 1014.44 1013.85 1012.87 1011.62 1010.27 1009.02 1008.02 1007.36 1007.08 1007.14 1007.45 1007.89 1008.32 1008.64 1008.79 1008.77 1008.60 1008.38 1008.19 1008.11 1008.21 1008.50 1008.96 1009.54 1010.18 1010.80 1011.33 1011.76 1012.05 1012.24 1012.35 1012.41 1012.46 1012.52 1012.58 1012.65 1012.69 1012.71 1012.68 1012.60 1012.49 1012.35 1012.22 1012.11
Thickness
5813 5811 5808 5797 5779 5760 5756 5768 5778 5778 5779 5786 5789 5785 5776 5770 5765 5762 5784 5793 5794 5794 5794 5794 5794 5794 5794 5794 5794 5794 5793 5793 5793 5792 5792 5791 5791 5790 5788 5787 5786 5784 5782 5780 5778 5777 5775 5773 5771
5815 5812 5803 5789 5765 5747 5755 5774 5777 5782 5787 5792 5791 5786 5778 5775 5781 5782 5787 5792 5794 5794 5793 5792 5792 5792 5792 5792 5792 5792 5791 5791 5791 5790 5790 5789 5789 5788 5787 5786 5784 5783 5781 5779 5777 5775 5773 5772 5770
5817 5814 5796 5779 5764 5754 5762 5779 5783 5790 5796 5794 5787 5786 5780 5776 5783 5785 5790 5793 5793 5792 5791 5791 5791 5791 5790 5790 5790 5790 5790 5789 5789 5788 5788 5788 5787 5786 5785 5784 5782 5781 5779 5777 5776 5774 5772 5770 5768
5816 5804 5793 5775 5767 5774 5779 5785 5790 5790 5793 5795 5788 5780 5783 5789 5789 5790 5793 5793 5791 5791 5790 5790 5790 5789 5789 5788 5788 5787 5787 5787 5787 5787 5786 5786 5785 5783 5782 5782 5780 5779 5778 5776 5774 5773 5771 5769 5767
5814 5796 5779 5767 5772 5785 5792 5796 5796 5789 5787 5789 5787 5776 5777 5789 5794 5793 5792 5792 5789 5789 5789 5788 5788 5788 5787 5786 5786 5785 5785 5785 5785 5785 5784 5784 5783 5782 5780 5779 5779 5778 5777 5775 5773 5771 5770 5768 5766
5802 5791 5769 5761 5773 5788 5796 5801 5797 5790 5788 5790 5786 5777 5777 5789 5791 5791 5791 5790 5789 5788 5787 5787 5787 5787 5786 5785 5784 5784 5784 5784 5784 5783 5783 5782 5781 5780 5779 5778 5777 5776 5775 5774 5772 5770 5769 5767 5766
5797 5784 5772 5772 5775 5785 5797 5804 5796 5791 5788 5790 5791 5777 5778 5785 5790 5792 5791 5789 5788 5788 5787 5787 5787 5786 5785 5784 5783 5783 5783 5783 5782 5782 5781 5781 5780 5779 5778 5777 5775 5775 5773 5772 5771 5769 5768 5766 5765
5807 5788 5777 5775 5778 5785 5802 5805 5803 5797 5793 5801 5797 5780 5776 5786 5792 5791 5789 5787 5786 5786 5786 5786 5787 5786 5785 5784 5783 5782 5782 5781 5781 5781 5780 5779 5778 5778 5777 5775 5774 5773 5772 5771 5770 5768 5767 5765 5763
5813 5784 5773 5781 5785 5792 5805 5802 5805 5809 5801 5799 5799 5794 5793 5794 5792 5788 5784 5783 5783 5784 5785 5785 5785 5784 5784 5783 5782 5781 5780 5780 5780 5779 5778 5778 5777 5776 5775 5775 5773 5772 5771 5770 5768 5767 5765 5764 5762
5804 5781 5788 5802 5805 5804 5807 5805 5804 5801 5793 5791 5792 5795 5797 5793 5789 5784 5781 5780 5780 5781 5783 5784 5784 5783 5783 5782 5781 5780 5779 5778 5777 5777 5776 5776 5775 5774 5773 5773 5772 5771 5769 5768 5767 5766 5764 5762 5760
5806 5795 5806 5813 5818 5815 5809 5808 5810 5797 5788 5791 5790 5791 5792 5790 5787 5784 5783 5782 5782 5782 5782 5783 5783 5783 5782 5780 5780 5778 5777 5777 5776 5775 5775 5774 5773 5772 5771 5771 5770 5769 5768 5767 5765 5764 5762 5760 5759
5809 5812 5817 5819 5823 5818 5812 5810 5805 5801 5800 5807 5803 5799 5793 5789 5787 5785 5784 5783 5783 5783 5783 5784 5783 5782 5781 5780 5779 5778 5777 5776 5774 5774 5774 5773 5772 5770 5769 5769 5768 5767 5766 5765 5764 5763 5761 5759 5757
5811 5816 5823 5825 5823 5819 5815 5808 5805 5803 5809 5809 5804 5798 5793 5790 5789 5788 5788 5787 5785 5784 5784 5784 5783 5782 5781 5780 5779 5778 5776 5775 5774 5773 5772 5772 5770 5769 5768 5767 5766 5765 5764 5763 5762 5761 5759 5758 5757
5819 5819 5820 5823 5822 5821 5811 5807 5804 5802 5808 5804 5800 5795 5794 5792 5791 5789 5787 5786 5785 5785 5785 5785 5784 5783 5781 5780 5778 5777 5776 5775 5774 5773 5772 5771 5769 5768 5767 5766 5765 5764 5763 5762 5761 5759 5758 5757 5756
5824 5814 5813 5817 5818 5817 5812 5797 5800 5806 5807 5800 5797 5796 5795 5794 5793 5791 5790 5789 5788 5787 5787 5785 5784 5783 5781 5780 5778 5777 5776 5775 5773 5772 5771 5770 5769 5768 5766 5764 5763 5763 5762 5761 5759 5758 5756 5755 5754
5815 5801 5791 5808 5815 5815 5804 5783 5801 5808 5804 5797 5796 5796 5794 5794 5794 5794 5793 5792 5791 5789 5787 5786 5786 5783 5781 5780 5779 5777 5776 5774 5772 5771 5770 5770 5769 5768 5766 5764 5762 5762 5761 5760 5758 5756 5754 5753 5752
5792 5782 5785 5799 5813 5812 5800 5788 5801 5807 5803 5797 5796 5796 5794 5793 5794 5796 5796 5795 5793 5790 5788 5786 5785 5784 5782 5780 5778 5776 5775 5774 5772 5771 5770 5770 5769 5768 5766 5764 5762 5761 5760 5759 5757 5755 5753 5751 5750
5782 5783 5787 5791 5806 5805 5794 5791 5800 5804 5802 5798 5798 5797 5795 5794 5795 5798 5798 5797 5795 5792 5790 5787 5785 5784 5782 5780 5778 5776 5774 5773 5772 5771 5770 5769 5768 5767 5766 5764 5762 5761 5759 5757 5755 5753 5752 5750 5749
5797 5790 5786 5795 5809 5801 5792 5791 5797 5802 5800 5798 5797 5796 5796 5796 5799 5799 5799 5798 5795 5792 5789 5787 5785 5783 5781 5778 5776 5773 5772 5772 5771 5771 5770 5769 5767 5766 5765 5763 5761 5760 5757 5756 5754 5752 5750 5748 5747
5797 5788 5787 5797 5808 5800 5790 5790 5798 5801 5802 5802 5801 5799 5798 5797 5797 5798 5798 5797 5795 5792 5790 5788 5786 5784 5782 5780 5778 5776 5774 5773 5773 5772 5770 5769 5767 5766 5765 5762 5760 5759 5756 5754 5753 5751 5748 5747 5746
5793 5789 5790 5791 5797 5797 5790 5781 5790 5799 5804 5804 5804 5804 5802 5800 5797 5797 5796 5796 5795 5793 5792 5791 5787 5786 5784 5782 5779 5777 5774 5772 5770 5770 5769 5768 5767 5765 5764 5762 5760 5758 5756 5754 5752 5750 5747 5743 5743
5785 5801 5799 5794 5781 5768 5778 5756 5779 5790 5793 5799 5801 5802 5802 5803 5802 5799 5798 5796 5796 5796 5795 5792 5789 5787 5785 5783 5779 5775 5771 5768 5768 5768 5768 5767 5766 5764 5763 5761 5759 5758 5755 5754 5752 5750 5748 5744 5741
5797 5805 5799 5791 5778 5766 5768 5758 5768 5786 5786 5795 5802 5805 5806 5806 5805 5802 5801 5800 5800 5798 5795 5792 5789 5787 5785 5783 5780 5776 5772 5770 5768 5767 5766 5765 5764 5763 5762 5760 5758 5756 5754 5753 5751 5749 5747 5745 5742
5806 5796 5785 5772 5762 5748 5760 5755 5761 5777 5789 5799 5805 5808 5809 5809 5808 5806 5804 5802 5800 5799 5796 5793 5789 5786 5785 5782 5779 5776 5772 5770 5767 5765 5763 5762 5762 5762 5761 5759 5758 5756 5754 5752 5750 5748 5746 5744 5741
5795 5770 5747 5744 5734 5740 5760 5756 5765 5795 5804 5807 5808 5810 5811 5810 5808 5805 5803 5801 5799 5797 5795 5792 5789 5785 5784 5782 5779 5776 5774 5771 5767 5765 5763 5761 5760 5759 5759 5759 5757 5755 5754 5752 5750 5747 5744 5742 5739
5784 5772 5744 5733 5730 5738 5754 5752 5778 5804 5810 5813 5814 5813 5813 5810 5808 5806 5805 5803 5801 5798 5796 5792 5788 5785 5784 5781 5779 5777 5774 5771 5769 5767 5765 5762 5760 5759 5759 5757 5756 5754 5753 5751 5748 5746 5743 5741 5738
5778 5766 5768 5744 5738 5733 5743 5760 5784 5805 5805 5808 5809 5809 5809 5809 5809 5807 5806 5804 5802 5799 5796 5793 5789 5785 5783 5781 5778 5776 5774 5771 5769 5767 5765 5763 5761 5759 5758 5756 5754 5752 5751 5748 5746 5744 5741 5738 5736
5786 5769 5751 5739 5727 5725 5739 5751 5763 5787 5794 5799 5803 5804 5807 5808 5808 5807 5806 5804 5802 5801 5797 5793 5790 5786 5783 5780 5778 5776 5773 5771 5769 5767 5764 5762 5760 5758 5756 5754 5752 5750 5748 5746 5744 5741 5739 5736 5733
5772 5763 5749 5735 5736 5724 5724 5746 5787 5790 5795 5796 5800 5804 5805 5806 5806 5806 5805 5804 5802 5799 5795 5791 5787 5783 5779 5777 5775 5773 5771 5770 5768 5765 5763 5761 5759 5757 5755 5753 5750 5748 5746 5744 5741 5739 5737 5734 5731
5778 5766 5752 5743 5734 5727 5727 5748 5798 5798 5800 5800 5801 5804 5806 5806 5807 5806 5804 5801 5798 5795 5792 5789 5786 5782 5779 5777 5773 5771 5769 5767 5765 5763 5761 5760 5758 5756 5754 5751 5748 5746 5744 5742 5739 5736 5734 5732 5729